STARLINK-32843, 62814

Orbit data source: Space-Track

STARLINK-32843, 62814 is a payload satellite owned by SpaceX/Seattle (US) in LEO that was launched on Fri, 24 Jan 2025 UTC via an FALCON 9 launch vehicle from the Air Force Western Test Range (AFWTR). Payload-class satellites include a variety of spacecraft equipped with specific instruments for various scientific and technological missions. These include communications satellites like Starlink; space stations such as the ISS; scientific satellites like the Hubble; Earth observation satellites from companies like Planet Labs, Umbra, and HawkEye 360; GPS; miniature CubeSats for education and research; and military/defense satellites.

Loading next visibility...
Identifier
62814, 2025-018J
Orbit
LEO
Country
Flag of USUS
Related business
Manufacturer
SpaceX/Seattle
Mission
Operational Commercial Communications
Bus & Motor
STARLINK V2M, Unknown motor
Mass
730 kg wet, ~700 kg dry
Launch date (UTC)
2025-01-24 (11 months ago)
Launch vehicle
FALCON 9
Launch site
Air Force Western Test Range (AFWTR)
Object type
Payload
Rocket body
Debris
Shape & HBR
Box + 2 Pan, 17.7 m
Radar Cross Section
33.884 m², Large (>1 m²)

Expand to show TLE details & history
Last TLE update: 18 hours ago

TLE from 18 hours ago
0 STARLINK-32843
1 62814U 25018J   25351.24157804  .00015883  00000-0  54709-3 0  9997
2 62814  53.1605 332.6733 0001524  94.4990 265.6185 15.30209324 50543
Epoch: 2025-12-17T05:47Z
TLE epoch observation values (Epoch: 2025-12-17T05:47:52.342Z)
Latitude
-0.00002°
Longitude
159.59093°
Altitude
476.167 km
Speed
7.629 km/s
True Right ascension
22h 10m 41s
True Declination
0° 00' 00"
Sunlit
Object was in daylight at epoch
Visualization orbit readout
Latitude
Unknown
Longitude
Unknown
Altitude
Unknown
Speed
Unknown
Apparent Right ascension
Unknown
Apparent Declination
Unknown
Sunlit
N/A
Visualization observer readout
Local Sidereal Time
22:41:09
Azimuth
Unknown
Elevation
Unknown
Doppler factor
Unknown
Orbital elements
Apogee altitude
476.488 km
Perigee altitude
474.399 km
Semi-major axis
6,853.581 km
Eccentricity
0.00015
Inclination
53.1605°
RAAN
332.6733°
Arg. of periapsis
94.499°
True anomaly
265.60109°
Mean anomaly
265.6185°
Eccentric anomaly
265.60979°
Mean motion
3.82531 °/min
Orbital period
94.11 mins
BSTAR
0.00054709
Loading maneuver chart data...
Computing Atmospheric mass density...
Loading historical data...
Loading historical data...
Loading historical data...
Loading historical data...
Loading historical data...
Loading historical data...
Loading historical data...

Documentation

Showing up to 5 results
|